カタログに戻る

OPS 9345

IDSCS 23

運用中軍事MEO
NORAD 3288·PAYLOAD·🇺🇸 United States

打ち上げ Jun 13, 1968 から Cape Canaveral Space Force Station

Loading…

次のパス (今後24時間)

TLE

最新Source: Space-Track

元期: Sep 11, 2026, 07:59 UTC

1 03288U 68050E   26254.33308763 -.00000096  00000-0  00000-0 0  9998
2 03288   7.2772  51.9391 0036094 146.5772 222.5577  1.07478363140172

AllMySatでOPS 9345をリアルタイム追跡

Download on the App Store